| time (UTC) | temp C | wind direction | speed KPH | gust KPH | rain 1hr cm | rain 24hr cm | rain mn cm | humidity % | barometer mb |
| 20260504081134 | 15 | 280 | 6.4 | 35.4 | 0.00 | 0.00 | 0.00 | 68 | 1010.8 |
| 20260504080133 | 15 | 334 | 19.3 | 32.2 | 0.00 | 0.00 | 0.00 | 68 | 1011.2 |
| 20260504060113 | 13 | 225 | 4.8 | 11.3 | 0.00 | 0.00 | 0.00 | 65 | 1010.2 |
| 20260504044924 | 14 | 225 | 6.4 | 12.9 | 0.00 | 0.00 | 0.00 | 64 | 1010.5 |
| 20260504043924 | 14 | 191 | 6.4 | 12.9 | 0.00 | 0.00 | 0.00 | 63 | 1010.5 |
| 20260504042923 | 14 | 225 | 8.0 | 12.9 | 0.00 | 0.00 | 0.00 | 64 | 1010.8 |
| 20260504041922 | 14 | 225 | 4.8 | 11.3 | 0.00 | 0.00 | 0.00 | 63 | 1010.8 |
| 20260504040920 | 15 | 225 | 4.8 | 11.3 | 0.00 | 0.00 | 0.00 | 63 | 1010.8 |
| 20260504035918 | 14 | 202 | 6.4 | 8.0 | 0.00 | 0.00 | 0.00 | 63 | 1011.2 |
| 20260504034846 | 14 | 225 | 3.2 | 3.2 | 0.00 | 0.00 | 0.00 | 63 | 1011.2 |
| 20260504033845 | 14 | 225 | 1.6 | 11.3 | 0.00 | 0.00 | 0.00 | 63 | 1011.2 |
| 20260504032844 | 14 | 210 | 6.4 | 11.3 | 0.00 | 0.00 | 0.00 | 63 | 1011.2 |
| 20260504031843 | 14 | 225 | 4.8 | 6.4 | 0.00 | 0.00 | 0.00 | 62 | 1011.5 |
| 20260504030811 | 14 | 225 | 4.8 | 8.0 | 0.00 | 0.00 | 0.00 | 62 | 1011.5 |
| 20260504025811 | 15 | 225 | 0.0 | 3.2 | 0.00 | 0.00 | 0.00 | 62 | 1011.5 |
| 20260504024809 | 15 | 225 | 0.0 | 3.2 | 0.00 | 0.00 | 0.00 | 61 | 1011.5 |
| 20260504023808 | 15 | 225 | 0.0 | 0.0 | 0.00 | 0.00 | 0.00 | 61 | 1011.5 |
| 20260504022808 | 15 | 225 | 0.0 | 9.7 | 0.00 | 0.00 | 0.00 | 60 | 1011.5 |
| 20260504021807 | 15 | 225 | 3.2 | 3.2 | 0.00 | 0.00 | 0.00 | 59 | 1011.5 |
| 20260504020735 | 15 | 225 | 3.2 | 3.2 | 0.00 | 0.00 | 0.00 | 59 | 1011.5 |
| 20260504015734 | 15 | 225 | 3.2 | 11.3 | 0.00 | 0.00 | 0.00 | 59 | 1011.5 |
| 20260504014730 | 15 | 225 | 4.8 | 4.8 | 0.00 | 0.00 | 0.00 | 58 | 1011.9 |
| 20260504013727 | 15 | 225 | 0.0 | 8.0 | 0.00 | 0.00 | 0.00 | 58 | 1011.5 |
| 20260504012727 | 16 | 225 | 0.0 | 0.0 | 0.00 | 0.00 | 0.00 | 57 | 1011.5 |
| 20260504011700 | 16 | 225 | 0.0 | 3.2 | 0.00 | 0.00 | 0.00 | 57 | 1011.5 |
| 20260504010700 | 16 | 225 | 0.0 | 0.0 | 0.00 | 0.00 | 0.00 | 56 | 1011.9 |
| 20260504005659 | 16 | 225 | 3.2 | 3.2 | 0.00 | 0.00 | 0.00 | 55 | 1011.9 |
| 20260504004556 | 17 | 225 | 0.0 | 6.4 | 0.00 | 0.00 | 0.00 | 54 | 1011.5 |
| 20260504003553 | 17 | 225 | 0.0 | 4.8 | 0.00 | 0.00 | 0.00 | 54 | 1011.5 |
| 20260504002552 | 17 | 225 | 3.2 | 9.7 | 0.00 | 0.00 | 0.00 | 54 | 1011.5 |
| 20260504001549 | 17 | 225 | 6.4 | 8.0 | 0.00 | 0.00 | 0.00 | 54 | 1011.5 |
| 20260504000513 | 17 | 229 | 8.0 | 12.9 | 0.00 | 0.00 | 0.00 | 52 | 1011.5 |
| 20260503235512 | 18 | 225 | 9.7 | 12.9 | 0.00 | 0.00 | 0.00 | 52 | 1011.5 |
| 20260503234511 | 18 | 231 | 8.0 | 16.1 | 0.00 | 0.00 | 0.00 | 51 | 1011.2 |
| 20260503233440 | 18 | 230 | 9.7 | 22.5 | 0.00 | 0.00 | 0.00 | 50 | 1011.2 |
| 20260503232439 | 19 | 224 | 14.5 | 20.9 | 0.00 | 0.00 | 0.00 | 50 | 1011.2 |
| 20260503231438 | 19 | 220 | 9.7 | 20.9 | 0.00 | 0.00 | 0.00 | 51 | 1011.2 |
| 20260503230437 | 19 | 245 | 12.9 | 20.9 | 0.00 | 0.00 | 0.00 | 51 | 1011.5 |
| 20260503225436 | 19 | 235 | 11.3 | 19.3 | 0.00 | 0.00 | 0.00 | 50 | 1011.5 |
| 20260503224404 | 20 | 238 | 11.3 | 27.4 | 0.00 | 0.00 | 0.00 | 50 | 1011.9 |
| 20260503223301 | 20 | 232 | 17.7 | 27.4 | 0.00 | 0.00 | 0.00 | 50 | 1011.5 |
| 20260503222301 | 21 | 246 | 14.5 | 30.6 | 0.00 | 0.00 | 0.00 | 49 | 1011.9 |
| 20260503221300 | 20 | 233 | 12.9 | 20.9 | 0.00 | 0.00 | 0.00 | 51 | 1012.2 |
| 20260503220259 | 19 | 234 | 14.5 | 24.1 | 0.00 | 0.00 | 0.00 | 52 | 1012.5 |
| 20260503215259 | 19 | 228 | 11.3 | 19.3 | 0.00 | 0.00 | 0.00 | 52 | 1012.5 |
| 20260503214227 | 19 | 229 | 9.7 | 25.7 | 0.00 | 0.00 | 0.00 | 53 | 1012.5 |
| 20260503213226 | 18 | 232 | 8.0 | 24.1 | 0.00 | 0.00 | 0.00 | 54 | 1012.5 |
| 20260503212225 | 18 | 226 | 8.0 | 24.1 | 0.00 | 0.00 | 0.00 | 54 | 1012.9 |
| 20260503211225 | 18 | 249 | 9.7 | 19.3 | 0.00 | 0.00 | 0.00 | 54 | 1013.2 |
| 20260503210221 | 18 | 223 | 11.3 | 17.7 | 0.00 | 0.00 | 0.00 | 54 | 1013.5 |
| 20260503205208 | 18 | 225 | 9.7 | 19.3 | 0.00 | 0.00 | 0.00 | 55 | 1013.5 |
| 20260503204207 | 18 | 226 | 9.7 | 20.9 | 0.00 | 0.00 | 0.00 | 55 | 1013.9 |
| 20260503203207 | 18 | 252 | 14.5 | 33.8 | 0.00 | 0.00 | 0.00 | 54 | 1014.2 |
| 20260503202206 | 18 | 249 | 12.9 | 24.1 | 0.00 | 0.00 | 0.00 | 55 | 1014.6 |
| 20260503201103 | 18 | 222 | 16.1 | 24.1 | 0.00 | 0.00 | 0.00 | 56 | 1014.6 |
| 20260503200031 | 18 | 235 | 11.3 | 27.4 | 0.00 | 0.00 | 0.00 | 56 | 1014.9 |
| 20260503195030 | 18 | 258 | 9.7 | 19.3 | 0.00 | 0.00 | 0.00 | 57 | 1015.2 |
| 20260503193959 | 18 | 245 | 11.3 | 30.6 | 0.00 | 0.00 | 0.00 | 57 | 1015.9 |
| 20260503192927 | 18 | 257 | 14.5 | 22.5 | 0.00 | 0.00 | 0.00 | 57 | 1015.9 |
| 20260503191925 | 18 | 249 | 12.9 | 27.4 | 0.00 | 0.00 | 0.00 | 57 | 1015.9 |
| 20260503190924 | 18 | 242 | 14.5 | 25.7 | 0.00 | 0.00 | 0.00 | 56 | 1015.9 |
| 20260503185923 | 18 | 232 | 14.5 | 24.1 | 0.00 | 0.00 | 0.00 | 58 | 1016.3 |
| 20260503184920 | 18 | 254 | 8.0 | 17.7 | 0.00 | 0.00 | 0.00 | 58 | 1016.6 |
| 20260503183848 | 18 | 231 | 6.4 | 32.2 | 0.00 | 0.00 | 0.00 | 59 | 1016.6 |
| 20260503182831 | 17 | 253 | 9.7 | 24.1 | 0.00 | 0.00 | 0.00 | 59 | 1017.3 |
| 20260503181830 | 17 | 223 | 9.7 | 29.0 | 0.00 | 0.00 | 0.00 | 61 | 1017.3 |
| 20260503180757 | 17 | 247 | 9.7 | 29.0 | 0.00 | 0.00 | 0.00 | 60 | 1017.3 |
| 20260503175745 | 17 | 245 | 9.7 | 22.5 | 0.00 | 0.00 | 0.00 | 61 | 1017.6 |
| 20260503174744 | 17 | 238 | 8.0 | 17.7 | 0.00 | 0.00 | 0.00 | 62 | 1017.6 |
| 20260503173712 | 17 | 227 | 8.0 | 20.9 | 0.00 | 0.00 | 0.00 | 61 | 1017.9 |
| 20260503172711 | 17 | 233 | 6.4 | 20.9 | 0.00 | 0.00 | 0.00 | 62 | 1018.3 |
| 20260503171710 | 16 | 233 | 9.7 | 17.7 | 0.00 | 0.00 | 0.00 | 62 | 1018.3 |
| 20260503170709 | 16 | 241 | 11.3 | 27.4 | 0.00 | 0.00 | 0.00 | 62 | 1018.6 |
| 20260503150700 | 14 | 241 | 11.3 | 16.1 | 0.00 | 0.00 | 0.00 | 71 | 1019.6 |
| 20260503130526 | 9 | 292 | 0.0 | 1.6 | 0.00 | 0.00 | 0.00 | 88 | 1019.6 |
| 20260503110246 | 3 | 337 | 0.0 | 0.0 | 0.00 | 0.00 | 0.00 | 89 | 1019.3 |
| 20260503100225 | 3 | 337 | 0.0 | 0.0 | 0.00 | 0.00 | 0.00 | 88 | 1019.0 |
| 20260503090143 | 3 | 337 | 0.0 | 0.0 | 0.00 | 0.00 | 0.00 | 87 | 1019.3 |